• In Belarus
  • List of Countries
  • For 7 days
  • Water Temperature
  • Weather Map
  • Weather Widgets
  • user-avatar
    Login

    Hourly Weather Prybyn'

    Today, 20 October, Sunday

    Time Temperature Precipitation Wind Pressure Humidity
    00:00 +12°C° 0 mm 3 mps 752 mmHg 82%
    01:00 +11°C° 0 mm 3 mps 752 mmHg 82%
    02:00 +11°C° 0 mm 3 mps 752 mmHg 83%
    03:00 +11°C° 0 mm 3 mps 752 mmHg 82%
    04:00 +11°C° 0 mm 3 mps 752 mmHg 80%
    05:00 +10°C° 0 mm 3 mps 752 mmHg 79%
    06:00 +11°C° 0 mm 3 mps 753 mmHg 76%
    07:00 +12°C° 0 mm 3 mps 753 mmHg 73%
    08:00 +12°C° 0 mm 3 mps 753 mmHg 71%
    09:00 +14°C° 0 mm 3 mps 753 mmHg 65%
    10:00 +17°C° 0 mm 4 mps 753 mmHg 59%
    11:00 +18°C° 0 mm 4 mps 753 mmHg 54%
    12:00 +19°C° 0 mm 4 mps 753 mmHg 51%
    13:00 +20°C° 0 mm 4 mps 753 mmHg 49%
    14:00 +20°C° 0 mm 4 mps 753 mmHg 47%
    15:00 +19°C° 0 mm 3 mps 753 mmHg 52%
    16:00 +17°C° 0 mm 3 mps 753 mmHg 57%
    17:00 +16°C° 0 mm 3 mps 753 mmHg 63%
    18:00 +14°C° 0 mm 3 mps 753 mmHg 64%
    19:00 +14°C° 0 mm 3 mps 753 mmHg 66%
    20:00 +13°C° 0 mm 3 mps 753 mmHg 68%
    21:00 +13°C° 0 mm 3 mps 753 mmHg 69%
    22:00 +12°C° 0 mm 3 mps 753 mmHg 70%
    23:00 +12°C° 0 mm 3 mps 753 mmHg 71%

    Tomorrow, 21 October, Monday

    Time Temperature Precipitation Wind Pressure Humidity
    00:00 +12°C° 0 mm 3 mps 753 mmHg 72%
    01:00 +12°C° 0 mm 3 mps 753 mmHg 72%
    02:00 +11°C° 0 mm 3 mps 754 mmHg 73%
    03:00 +11°C° 0 mm 3 mps 753 mmHg 74%
    04:00 +11°C° 0 mm 3 mps 753 mmHg 75%
    05:00 +11°C° 0 mm 3 mps 753 mmHg 76%
    06:00 +11°C° 0 mm 3 mps 753 mmHg 75%
    07:00 +12°C° 0 mm 3 mps 753 mmHg 74%
    08:00 +12°C° 0 mm 3 mps 754 mmHg 73%
    09:00 +14°C° 0 mm 3 mps 754 mmHg 70%
    10:00 +16°C° 0 mm 3 mps 754 mmHg 66%
    11:00 +18°C° 0 mm 3 mps 754 mmHg 62%
    12:00 +19°C° 0 mm 3 mps 754 mmHg 60%
    13:00 +20°C° 0 mm 3 mps 754 mmHg 58%
    14:00 +21°C° 0 mm 3 mps 754 mmHg 56%
    15:00 +19°C° 0 mm 3 mps 753 mmHg 61%
    16:00 +18°C° 0 mm 3 mps 753 mmHg 66%
    17:00 +16°C° 0 mm 2 mps 753 mmHg 72%
    18:00 +16°C° 0 mm 2 mps 753 mmHg 73%
    19:00 +15°C° 0 mm 2 mps 753 mmHg 75%
    20:00 +15°C° 0 mm 2 mps 754 mmHg 76%
    21:00 +14°C° 0 mm 2 mps 754 mmHg 77%
    22:00 +14°C° 0 mm 2 mps 754 mmHg 77%
    23:00 +14°C° 0 mm 2 mps 753 mmHg 78%

    Day after tomorrow, 22 October, Tuesday

    Time Temperature Precipitation Wind Pressure Humidity
    00:00 +13°C° 0 mm 2 mps 754 mmHg 79%
    01:00 +13°C° 0 mm 2 mps 754 mmHg 80%
    02:00 +13°C° 0 mm 2 mps 754 mmHg 81%
    03:00 +13°C° 0 mm 2 mps 754 mmHg 82%
    04:00 +12°C° 0 mm 2 mps 754 mmHg 83%
    05:00 +12°C° 0 mm 2 mps 754 mmHg 84%
    06:00 +13°C° 0 mm 2 mps 754 mmHg 82%
    07:00 +13°C° 0 mm 2 mps 754 mmHg 80%
    08:00 +13°C° 0 mm 2 mps 754 mmHg 78%
    09:00 +15°C° 0 mm 2 mps 754 mmHg 72%
    10:00 +16°C° 0 mm 2 mps 754 mmHg 66%
    11:00 +18°C° 0 mm 2 mps 754 mmHg 60%
    12:00 +18°C° 0 mm 2 mps 754 mmHg 58%
    13:00 +19°C° 0 mm 2 mps 754 mmHg 56%
    14:00 +20°C° 0 mm 2 mps 754 mmHg 55%
    15:00 +18°C° 0 mm 2 mps 754 mmHg 60%
    16:00 +17°C° 0 mm 2 mps 754 mmHg 65%
    17:00 +16°C° 0 mm 1 mps 753 mmHg 70%
    18:00 +15°C° 0 mm 1 mps 753 mmHg 73%
    19:00 +14°C° 0 mm 1 mps 754 mmHg 75%
    20:00 +14°C° 0 mm 1 mps 754 mmHg 78%
    21:00 +14°C° 0 mm 1 mps 754 mmHg 80%
    22:00 +13°C° 0 mm 1 mps 753 mmHg 82%
    23:00 +13°C° 0 mm 1 mps 753 mmHg 84%

    23 October, Wednesday

    Time Temperature Precipitation Wind Pressure Humidity
    00:00 +13°C° 0 mm 1 mps 753 mmHg 84%
    01:00 +13°C° 0 mm 1 mps 753 mmHg 84%
    02:00 +13°C° 0 mm 1 mps 753 mmHg 85%
    03:00 +12°C° 0 mm 1 mps 753 mmHg 86%
    04:00 +12°C° 0 mm 2 mps 753 mmHg 86%
    05:00 +12°C° 0 mm 2 mps 753 mmHg 87%
    06:00 +12°C° 0 mm 2 mps 753 mmHg 84%
    07:00 +13°C° 0 mm 2 mps 753 mmHg 82%
    08:00 +13°C° 0 mm 2 mps 753 mmHg 79%
    09:00 +15°C° 0 mm 2 mps 753 mmHg 74%
    10:00 +16°C° 0 mm 3 mps 752 mmHg 68%
    11:00 +18°C° 0 mm 3 mps 752 mmHg 63%
    12:00 +19°C° 0 mm 3 mps 752 mmHg 62%
    13:00 +19°C° 0 mm 4 mps 751 mmHg 62%
    14:00 +19°C° 0 mm 4 mps 751 mmHg 61%
    15:00 +18°C° 0 mm 4 mps 751 mmHg 66%
    16:00 +17°C° 0 mm 3 mps 750 mmHg 72%
    17:00 +16°C° 0 mm 3 mps 750 mmHg 77%
    18:00 +14°C° 0 mm 3 mps 750 mmHg 80%
    19:00 +14°C° 0 mm 3 mps 750 mmHg 83%
    20:00 +14°C° 0 mm 2 mps 750 mmHg 85%
    21:00 +14°C° 0 mm 2 mps 750 mmHg 85%
    22:00 +15°C° 0 mm 2 mps 750 mmHg 86%
    23:00 +15°C° 0 mm 2 mps 750 mmHg 86%

    24 October, Thursday

    Time Temperature Precipitation Wind Pressure Humidity
    00:00 +14°C° 0 mm 2 mps 750 mmHg 89%
    01:00 +13°C° 0 mm 2 mps 750 mmHg 92%
    02:00 +13°C° 0 mm 2 mps 751 mmHg 95%
    03:00 +12°C° 0 mm 2 mps 751 mmHg 95%
    04:00 +12°C° 0 mm 2 mps 751 mmHg 96%
    05:00 +10°C° 0 mm 2 mps 751 mmHg 97%
    06:00 +10°C° 0 mm 2 mps 751 mmHg 96%
    07:00 +10°C° 0 mm 2 mps 751 mmHg 95%
    08:00 +10°C° 0 mm 2 mps 752 mmHg 94%
    09:00 +13°C° 0 mm 2 mps 752 mmHg 85%
    10:00 +14°C° 0 mm 2 mps 752 mmHg 76%
    11:00 +15°C° 0 mm 2 mps 752 mmHg 67%
    12:00 +16°C° 0 mm 2 mps 752 mmHg 63%
    13:00 +16°C° 0 mm 2 mps 752 mmHg 59%
    14:00 +16°C° 0 mm 2 mps 752 mmHg 56%
    15:00 +15°C° 0 mm 2 mps 752 mmHg 61%
    16:00 +13°C° 0 mm 2 mps 752 mmHg 67%
    17:00 +12°C° 0 mm 2 mps 752 mmHg 73%
    18:00 +11°C° 0 mm 1 mps 752 mmHg 76%
    19:00 +10°C° 0 mm 1 mps 752 mmHg 80%
    20:00 +10°C° 0 mm 1 mps 752 mmHg 83%
    21:00 +9°C° 0 mm 1 mps 752 mmHg 84%
    22:00 +9°C° 0 mm 1 mps 752 mmHg 86%
    23:00 +8°C° 0 mm 1 mps 752 mmHg 88%

    25 October, Friday

    Time Temperature Precipitation Wind Pressure Humidity
    00:00 +7°C° 0 mm 0 mps 752 mmHg 88%
    01:00 +7°C° 0 mm 0 mps 752 mmHg 88%
    02:00 +7°C° 0 mm 0 mps 752 mmHg 88%
    03:00 +6°C° 0 mm 0 mps 752 mmHg 88%
    04:00 +6°C° 0 mm 0 mps 752 mmHg 88%
    05:00 +7°C° 0 mm 1 mps 752 mmHg 88%
    06:00 +8°C° 0 mm 1 mps 753 mmHg 86%
    07:00 +8°C° 0 mm 1 mps 753 mmHg 84%
    08:00 +9°C° 0 mm 1 mps 753 mmHg 82%
    09:00 +10°C° 0 mm 1 mps 753 mmHg 75%
    10:00 +12°C° 0 mm 1 mps 753 mmHg 68%
    11:00 +14°C° 0 mm 2 mps 753 mmHg 60%
    12:00 +15°C° 0 mm 2 mps 753 mmHg 58%
    13:00 +16°C° 0 mm 2 mps 753 mmHg 56%
    14:00 +17°C° 0 mm 2 mps 752 mmHg 54%
    15:00 +15°C° 0 mm 2 mps 752 mmHg 60%
    16:00 +14°C° 0 mm 2 mps 752 mmHg 66%
    17:00 +12°C° 0 mm 2 mps 752 mmHg 72%
    18:00 +12°C° 0 mm 2 mps 752 mmHg 74%
    19:00 +11°C° 0 mm 3 mps 752 mmHg 76%
    20:00 +10°C° 0 mm 3 mps 752 mmHg 78%
    21:00 +10°C° 0 mm 3 mps 752 mmHg 81%
    22:00 +10°C° 0 mm 3 mps 752 mmHg 84%
    23:00 +10°C° 0 mm 3 mps 752 mmHg 86%
    Show more